sat.trackr.live / text

‹ back to catalog

STARLINK-4635

NORAD 53966 · 2022-125C

PAYLOAD ACTIVE UNKNOWN

§ Identity

Operator
Country
US
Launch date
2022-10-05
Launch site
AFWTR
Launch vehicle
Mass (kg)
RCS (m²)

Purposes: comms

External: N2YO · Heavens-Above · Gunter

§ Orbital elements

Epoch: 2026-05-24T16:25:17.796864Z

Period
95.44 min
Inclination
53.2177°
Eccentricity
0.0001322
Mean motion
15.08840429 rev/d
Perigee alt
538.8 km
Apogee alt
540.7 km
Semi-major
6,917.9 km
B*
2.4146e-5
RAAN
243.0434°
Arg perigee
93.1578°
Mean anomaly
266.9565°
Rev number
20,079

§ Raw data

STARLINK-46351 53966U 22125C   26144.68423376  .00000096  00000+0  24146-4 0  99922 53966  53.2177 243.0434 0001322  93.1578 266.9565 15.08840429200795

JSON: /api/v1/satellites/53966 · /tle

For live sub-satellite position, see the globe view (requires WebGL).

§ Visibility from observer

Set your observer location to see the next 7 days of passes ≥ 10°. The values pass through the URL so the page stays shareable.

No JS? Fill the form by hand. The geolocation button needs JavaScript.